When you browse on this site, cookies collect data to enhance your experience and personalize the content and advertising you see.
Visit our Privacy Policy to learn more. By continuing to use the site, you agree to this use of cookies and data.
  • en France
  • Liste des pays
  • À 7 jours
  • Température de l'eau
  • Carte satellitaire
  • Carte météo
  • Widgets météo
  • user-avatar
    Se connecter

    Météo par heure à Lyon

    Ce jour, 23 Janvier, Mercredi

    Heure Température Précipitation Vent Pression Humidité
    00:00 +1°C° 0 mm 1 m/s 736 mmHg 83%
    01:00 +1°C° 0 mm 1 m/s 735 mmHg 84%
    02:00 +1°C° 0 mm 1 m/s 734 mmHg 84%
    03:00 +1°C° 0 mm 1 m/s 734 mmHg 84%
    04:00 +1°C° 0.3 mm 1 m/s 733 mmHg 85%
    05:00 +1°C° 0.3 mm 1 m/s 732 mmHg 86%
    06:00 +1°C° 0.3 mm 1 m/s 732 mmHg 87%
    07:00 +1°C° 1 mm 1 m/s 731 mmHg 90%
    08:00 -1°C° 1 mm 2 m/s 731 mmHg 92%
    09:00 -1°C° 1 mm 2 m/s 731 mmHg 94%
    10:00 +1°C° 1 mm 2 m/s 730 mmHg 95%
    11:00 +1°C° 1 mm 2 m/s 730 mmHg 96%
    12:00 +2°C° 1 mm 2 m/s 730 mmHg 96%
    13:00 +2°C° 0.2 mm 2 m/s 730 mmHg 94%
    14:00 +1°C° 0.2 mm 3 m/s 731 mmHg 91%
    15:00 0°C° 0.2 mm 4 m/s 731 mmHg 88%
    16:00 +1°C° 0.1 mm 3 m/s 731 mmHg 89%
    17:00 0°C° 0.1 mm 3 m/s 731 mmHg 90%
    18:00 +1°C° 0.1 mm 2 m/s 732 mmHg 91%
    19:00 -1°C° 0.1 mm 2 m/s 732 mmHg 92%
    20:00 -1°C° 0.1 mm 2 m/s 733 mmHg 92%
    21:00 -1°C° 0.1 mm 3 m/s 733 mmHg 93%
    22:00 -1°C° 0 mm 3 m/s 734 mmHg 93%
    23:00 -1°C° 0 mm 3 m/s 734 mmHg 93%

    Demain, 24 Janvier, Jeudi

    Heure Température Précipitation Vent Pression Humidité
    00:00 -2°C° 0 mm 4 m/s 735 mmHg 93%
    01:00 -2°C° 0.1 mm 4 m/s 736 mmHg 93%
    02:00 -2°C° 0.1 mm 4 m/s 736 mmHg 93%
    03:00 -2°C° 0.1 mm 4 m/s 737 mmHg 92%
    04:00 -2°C° 0 mm 4 m/s 737 mmHg 92%
    05:00 -3°C° 0 mm 4 m/s 738 mmHg 91%
    06:00 -4°C° 0 mm 4 m/s 738 mmHg 91%
    07:00 -4°C° 0 mm 4 m/s 739 mmHg 90%
    08:00 -4°C° 0 mm 4 m/s 739 mmHg 89%
    09:00 -4°C° 0 mm 4 m/s 740 mmHg 88%
    10:00 -3°C° 0 mm 4 m/s 740 mmHg 87%
    11:00 -2°C° 0 mm 5 m/s 740 mmHg 85%
    12:00 -2°C° 0 mm 5 m/s 740 mmHg 83%
    13:00 -2°C° 0 mm 5 m/s 741 mmHg 83%
    14:00 -2°C° 0 mm 5 m/s 741 mmHg 84%
    15:00 -2°C° 0 mm 5 m/s 741 mmHg 84%
    16:00 -2°C° 0 mm 4 m/s 742 mmHg 85%
    17:00 -3°C° 0 mm 4 m/s 743 mmHg 86%
    18:00 -3°C° 0 mm 4 m/s 743 mmHg 87%
    19:00 -3°C° 0 mm 4 m/s 744 mmHg 88%
    20:00 -4°C° 0 mm 4 m/s 744 mmHg 88%
    21:00 -4°C° 0 mm 3 m/s 745 mmHg 89%
    22:00 -4°C° 0 mm 3 m/s 745 mmHg 90%
    23:00 -3°C° 0 mm 2 m/s 745 mmHg 91%

    Après-demain, 25 Janvier, Vendredi

    Heure Température Précipitation Vent Pression Humidité
    00:00 -4°C° 0 mm 2 m/s 745 mmHg 92%
    01:00 -4°C° 0 mm 2 m/s 745 mmHg 91%
    02:00 -4°C° 0 mm 2 m/s 745 mmHg 91%
    03:00 -3°C° 0 mm 2 m/s 745 mmHg 91%
    04:00 -1°C° 0.2 mm 1 m/s 745 mmHg 92%
    05:00 -1°C° 0.2 mm 1 m/s 744 mmHg 93%
    06:00 -2°C° 0.2 mm 0 m/s 744 mmHg 94%
    07:00 -1°C° 0.2 mm 1 m/s 744 mmHg 93%
    08:00 0°C° 0.2 mm 1 m/s 744 mmHg 92%
    09:00 0°C° 0.2 mm 1 m/s 744 mmHg 91%
    10:00 -1°C° 0 mm 2 m/s 744 mmHg 91%
    11:00 +1°C° 0 mm 2 m/s 744 mmHg 90%
    12:00 +1°C° 0 mm 3 m/s 744 mmHg 89%
    13:00 +1°C° 0 mm 3 m/s 744 mmHg 88%
    14:00 0°C° 0 mm 4 m/s 744 mmHg 87%
    15:00 0°C° 0 mm 4 m/s 745 mmHg 87%
    16:00 -1°C° 0 mm 4 m/s 746 mmHg 88%
    17:00 -2°C° 0 mm 4 m/s 746 mmHg 90%
    18:00 -3°C° 0 mm 4 m/s 747 mmHg 91%
    19:00 -4°C° 0 mm 4 m/s 748 mmHg 92%
    20:00 -4°C° 0 mm 3 m/s 748 mmHg 92%
    21:00 -5°C° 0 mm 3 m/s 749 mmHg 93%
    22:00 -5°C° 0 mm 3 m/s 749 mmHg 93%
    23:00 -5°C° 0 mm 3 m/s 749 mmHg 94%

    26 Janvier, Samedi

    Heure Température Précipitation Vent Pression Humidité
    00:00 -5°C° 0 mm 3 m/s 750 mmHg 94%
    01:00 -5°C° 0 mm 2 m/s 750 mmHg 94%
    02:00 -5°C° 0 mm 2 m/s 750 mmHg 94%
    03:00 -5°C° 0 mm 2 m/s 750 mmHg 94%
    04:00 -5°C° 0 mm 2 m/s 750 mmHg 93%
    05:00 -3°C° 0 mm 1 m/s 750 mmHg 93%
    06:00 -3°C° 0 mm 1 m/s 750 mmHg 93%
    07:00 -2°C° 0 mm 1 m/s 749 mmHg 90%
    08:00 -1°C° 0 mm 1 m/s 749 mmHg 87%
    09:00 -1°C° 0 mm 0 m/s 749 mmHg 84%
    10:00 0°C° 0 mm 0 m/s 748 mmHg 82%
    11:00 +1°C° 0 mm 0 m/s 748 mmHg 80%
    12:00 +2°C° 0 mm 0 m/s 747 mmHg 78%
    13:00 +2°C° 0 mm 0 m/s 747 mmHg 82%
    14:00 +3°C° 0 mm 1 m/s 746 mmHg 85%
    15:00 +3°C° 0 mm 1 m/s 745 mmHg 88%
    16:00 +3°C° 0 mm 1 m/s 745 mmHg 88%
    17:00 +3°C° 0 mm 1 m/s 745 mmHg 88%
    18:00 +2°C° 0 mm 1 m/s 745 mmHg 87%
    19:00 +2°C° 0.1 mm 1 m/s 745 mmHg 88%
    20:00 +2°C° 0.1 mm 2 m/s 744 mmHg 88%
    21:00 +2°C° 0.1 mm 2 m/s 744 mmHg 88%
    22:00 +2°C° 0.3 mm 2 m/s 743 mmHg 90%
    23:00 +2°C° 0.3 mm 2 m/s 742 mmHg 92%

    27 Janvier, Dimanche

    Heure Température Précipitation Vent Pression Humidité
    00:00 +2°C° 0.3 mm 2 m/s 741 mmHg 93%
    01:00 +3°C° 0.7 mm 2 m/s 741 mmHg 94%
    02:00 +3°C° 0.7 mm 2 m/s 740 mmHg 95%
    03:00 +3°C° 0.7 mm 2 m/s 740 mmHg 95%
    04:00 +3°C° 0.3 mm 2 m/s 740 mmHg 94%
    05:00 +2°C° 0.3 mm 3 m/s 740 mmHg 92%
    06:00 +1°C° 0.3 mm 4 m/s 740 mmHg 91%
    07:00 0°C° 0 mm 4 m/s 741 mmHg 89%
    08:00 0°C° 0 mm 4 m/s 741 mmHg 87%
    09:00 0°C° 0 mm 4 m/s 742 mmHg 85%
    10:00 0°C° 0.1 mm 4 m/s 742 mmHg 81%
    11:00 +1°C° 0.1 mm 4 m/s 742 mmHg 78%
    12:00 +1°C° 0.1 mm 4 m/s 742 mmHg 74%
    13:00 +1°C° 0.2 mm 4 m/s 742 mmHg 75%
    14:00 0°C° 0.2 mm 4 m/s 742 mmHg 75%
    15:00 0°C° 0.2 mm 4 m/s 742 mmHg 76%
    16:00 0°C° 0.1 mm 3 m/s 742 mmHg 79%
    17:00 -1°C° 0.1 mm 2 m/s 742 mmHg 83%
    18:00 +1°C° 0.1 mm 1 m/s 742 mmHg 86%
    19:00 +1°C° 0.2 mm 1 m/s 742 mmHg 88%
    20:00 +1°C° 0.2 mm 1 m/s 742 mmHg 90%
    21:00 +1°C° 0.2 mm 1 m/s 741 mmHg 93%
    22:00 -1°C° 0.9 mm 2 m/s 741 mmHg 92%
    23:00 0°C° 0.9 mm 3 m/s 741 mmHg 91%

    28 Janvier, Lundi

    Heure Température Précipitation Vent Pression Humidité
    00:00 -1°C° 0.9 mm 4 m/s 740 mmHg 90%
    01:00 -1°C° 0.2 mm 4 m/s 740 mmHg 89%
    02:00 -1°C° 0.2 mm 5 m/s 740 mmHg 88%
    03:00 -2°C° 0.2 mm 5 m/s 740 mmHg 86%
    04:00 -2°C° 0 mm 5 m/s 740 mmHg 87%
    05:00 -2°C° 0 mm 5 m/s 740 mmHg 88%
    06:00 -2°C° 0 mm 4 m/s 740 mmHg 90%
    07:00 -1°C° 0.1 mm 4 m/s 740 mmHg 90%
    08:00 -1°C° 0.1 mm 4 m/s 740 mmHg 91%
    09:00 0°C° 0.1 mm 3 m/s 741 mmHg 92%
    10:00 0°C° 0.3 mm 3 m/s 741 mmHg 92%
    11:00 -1°C° 0.3 mm 4 m/s 741 mmHg 92%
    12:00 0°C° 0.3 mm 4 m/s 741 mmHg 92%
    13:00 0°C° 0.1 mm 4 m/s 741 mmHg 91%
    14:00 0°C° 0.1 mm 4 m/s 741 mmHg 90%
    15:00 0°C° 0.1 mm 4 m/s 741 mmHg 89%
    16:00 -1°C° 0.2 mm 5 m/s 742 mmHg 89%
    17:00 -1°C° 0.2 mm 5 m/s 742 mmHg 90%
    18:00 -1°C° 0.2 mm 5 m/s 743 mmHg 90%
    19:00 -1°C° 0.1 mm 5 m/s 743 mmHg 90%
    20:00 -1°C° 0.1 mm 5 m/s 744 mmHg 90%
    21:00 -2°C° 0.1 mm 5 m/s 744 mmHg 90%
    22:00 -2°C° 0 mm 4 m/s 744 mmHg 90%
    23:00 -2°C° 0 mm 4 m/s 744 mmHg 91%
    Voir plus